www.pogodaiklimat.ru

Погода и климат >> Архив погоды >> Канада >> Нунавут >> Кам Фор


ПОГОДА в Кам Фор

  • Прогноз погоды в Кам Фор
  • Монитор погоды в Кам Фор

АРХИВ ПОГОДЫ в Кам Фор

Время (UTC), дата Ветер
(напр.,м/с)
 
Видим.   Явления Облачность Т
(С)
Тd
(С)
f
(%)
Тe
(С)
Тes
(С)
Комфортность P
(гПа)
Po
(гПа)
Тmin
(С)
Tmax
(С)
R
(мм)
R24
(мм)
S
(см)
21 17.05 С 8 н/о н/о -6.8 -15 -15 1030.4 987.9
00 18.05 С 7 н/о н/о -7.7 -15 -15 1031.4 988.8 -10.2 -6.5
03 18.05 С 7 н/о н/о -10.8 -20 -20 1031.5 988.7
06 18.05 С 5 н/о н/о -11.2 -19 -19 1031.8 989.1 -11.5 -6.5 121
09 18.05 С 4 н/о н/о -11.1 -18 -18 1032.5 989.8
12 18.05 С 3 н/о н/о -9.1 -14 -14 1033.0 990.3 -11.7 -6.5
15 18.05 СЗ 3 н/о н/о -8.7 -14 -14 1033.1 990.3
18 18.05 З 3 н/о н/о -7.1 -12 -12 1032.9 990.2 -11.7 -6.9
21 18.05 З 4 н/о н/о -6.2 -11 -11 1032.7 990.0
00 19.05 СЗ 5 н/о н/о -6.7 -13 -13 1032.6 990.0 -11.7 -5.8
03 19.05 СЗ 5 н/о н/о -10.0 -17 -17 1031.8 989.1
06 19.05 СЗ 4 н/о н/о -11.8 -19 -19 1031.6 988.9 -11.8 -5.8
09 19.05 СЗ 5 н/о н/о -13.1 -21 -21 1031.4 988.7
12 19.05 З 5 н/о н/о -13.8 -22 -22 1031.7 988.9 -14.1 -5.8
15 19.05 З 3 н/о н/о -10.7 -16 -16 1031.5 988.7
18 19.05 З 3 н/о н/о -8.8 -13 -13 1030.9 988.2 -14.1 -8.8
21 19.05 СЗ 4 н/о н/о -7.1 -12 -12 1030.5 987.8
00 20.05 С 4 н/о н/о -7.7 -13 -13 1030.3 987.5 -14.1 -6.6
03 20.05 С 2 н/о н/о -9.0 -13 -13 1029.3 986.7
06 20.05 З 1 н/о н/о -9.6 -11 -11 1028.7 986.1 -14.1 -6.6
09 20.05 ЮЗ 1 н/о н/о -10.1 -12 -12 1027.7 985.2
12 20.05 ЮВ 1 н/о н/о -9.2 -11 -11 1026.6 984.2 -10.2 -6.6
15 20.05 ЮВ 3 н/о н/о -8.4 -13 -13 1025.6 983.2
18 20.05 ЮВ 6 н/о н/о -8.4 -16 -16 1024.4 982.0 -10.2 -7.8
21 20.05 ЮВ 6 н/о н/о -7.9 -15 -15 1023.4 981.1
00 21.05 ЮВ 8 н/о н/о -8.3 -17 -17 1022.8 980.5 -10.2 -6.9
03 21.05 В 7 н/о н/о -8.7 -17 -17 1022.2 980.0
06 21.05 В 8 н/о н/о -9.1 -18 -18 1021.7 979.5 -10.2 -6.9 60
09 21.05 В 9 н/о н/о -10.7 -21 -21 1022.0 979.7
12 21.05 В 7 н/о н/о -10.6 -20 -20 1022.3 980.0 -11.4 -6.9
15 21.05 СВ 7 н/о н/о -9.6 -18 -18 1022.4 980.1
18 21.05 СВ 8 н/о н/о -9.3 -18 -18 1023.0 980.7 -11.4 -9.1
21 21.05 СВ 7 н/о н/о -8.6 -17 -17 1023.9 981.5
00 22.05 СВ 6 н/о н/о -9.4 -17 -17 1025.0 982.5 -11.4 -8.2
03 22.05 СВ 5 н/о н/о -10.3 -18 -18 1025.5 983.0
06 22.05 СВ 5 н/о н/о -10.1 -18 -18 1025.9 983.4 -11.4 -8.2 81
09 22.05 СВ 5 н/о н/о -9.0 -16 -16 1026.3 983.9
12 22.05 С 6 н/о н/о -7.7 -15 -15 1026.8 984.4 -10.6 -8.2
15 22.05 С 8 н/о н/о -6.2 -14 -14 1026.6 984.2
18 22.05 СВ 13 н/о н/о -5.9 -16 -16 1025.6 983.3 -10.6 -5.5
21 22.05 С 10 н/о н/о -5.8 -14 -14 1023.8 981.6
00 23.05 С 11 н/о н/о -5.6 -14 -14 1022.3 980.2 -10.1 -5.5
03 23.05 СВ 13 н/о н/о -4.1 -13 -13 1020.1 978.3
06 23.05 СВ 12 н/о н/о -2.3 -10 -10 1019.1 977.4 -10.1 -2.3 61
09 23.05 СВ 14 н/о н/о -1.8 -10 -10 1018.0 976.4
12 23.05 СВ 16 н/о н/о -1.8 -11 -11 1017.7 976.1 -5.6 -2.3
15 23.05 СВ 15 н/о н/о -2.0 -11 -11 1016.9 975.4
18 23.05 СВ 14 н/о н/о -2.0 -10 -10 1016.4 975.0 -6.4 -1.7
21 23.05 СВ 14 н/о н/о -3.4 -12 -12 1016.0 974.6
00 24.05 СВ 14 н/о н/о -4.0 -13 -13 1015.4 974.0 -4.0 -1.8
03 24.05 С 14 н/о н/о -4.8 -14 -14 1014.7 973.2
06 24.05 С 11 н/о н/о -6.0 -15 -15 1014.4 972.9 -6.1 -1.7 142
09 24.05 С 7 н/о н/о -6.1 -13 -13 1014.3 972.7
12 24.05 СЗ 7 н/о н/о -6.7 -14 -14 1014.4 972.8 -6.7 -1.7
15 24.05 С 6 н/о н/о -5.0 -11 -11 1014.7 973.1
18 24.05 С 7 н/о н/о -3.9 -11 -11 1014.9 973.3 -6.8 -3.9

 

Местоположение метеостанции Кам Фор (Нунавут, Канада): широта 68.43 долгота -89.71 высота над уровнем моря 325 м.

В архиве по умолчанию представлена погода в Кам Фор за последнюю неделю. Архивные данные за месяц целиком и за предыдущие месяцы, начиная с января 2011 года, Вы можете получить, выбрав интересующий диапазон дат из раскрывающегося списка и нажав кнопку "Ввод!".


*Определитесь, кто Вы:
робот инопланетянин человек

Внимание! Время в таблицах - всемирное. Для получения местного времени необходимо прибавить поправку, которая равна -6 ч.

Смотрите также архив погоды в соседних городах и на ближайших метеорологических станциях:

Погода в Кугааруке (Нунавут, Канада) (12 км)
Погода в Шеперд-Бее (Нунавут, Канада) (157 км)
Погода в Талойоаке (Нунавут, Канада) (198 км)
Погода в Джойа Хейвен (Нунавут, Канада) (251 км)
Погода в Вейджер Бэй (Нунавут, Канада) (284 км)
Погода в Холл Бич (Нунавут, Канада) (345 км)
Погода в Глеичене (Альберта, Канада) (392 км)
Погода на Острове Хат (Нунавут, Канада) (421 км)
Погода на Острове Роули (Нунавут, Канада) (436 км)
Погода в Бейкер Лейк (Нунавут, Канада) (536 км)

Пояснения к столбцам:

Ветер - указаны скорость ветра в м/с - средняя за 10 мин, порывы в срок и между сроками (в фигурных скобках) и направление, откуда дует ветер: С - северный, СВ - северо-восточный, В - восточный, ЮВ - юго-восточный, Ю - южный, ЮЗ - юго-западный, З - западный, СЗ - северо-западный.
Видимость - горизонтальная дальность видимости в метрах или километрах. При видимости от 1 до 10 км при отсутствии осадков обычно наблюдается дымка, при ухудшении видимости до 1 км и менее - туман. В сухую погоду видимость может ухудшаться дымом, пылью или мглою.
Явления - указаны атмосферные явления, наблюдавшиеся в срок или в последний час перед сроком; фигурными скобками обозначены явления, наблюдавшиеся между сроками (за 1-3 часа до срока); квадратными скобками обозначены град или гололедные отложения с указанием их диаметра в мм.
Облачность - указаны через наклонную черту общая и нижняя облачность в баллах и высота нижней границы облаков в метрах; квадратными скобками обозначены формы облаков: Ci - перистые, Cs - перисто-слоистые, Cc - перисто-кучевые, Ac - высококучевые, As - высокослоистые, Sc - слоисто-кучевые, Ns - слоисто-дождевые, Cu - кучевые, Cb - кучево-дождевые. Подробнее классификацию облаков см. в Атласе облаков (PDF).
T - Температура воздуха - температура, измеренная на высоте 2 м над землей.
Td - Температура точки росы - температура, при понижении до которой содержащийся в воздухе водяной пар достигнет насыщения.
f - Относительная влажность воздуха - влажноcть воздуха, измеренная на высоте 2 м над землей.
Te - Эффективная температура - температура, которую ощущает одетый по сезону человек в тени. Характеристика душности погоды. При расчете учитывается влияние влажности воздуха и скорости ветра на теплоощущения человека.
Tes - Эффективная температура на солнце - температура, которую ощущает человек, с поправкой на солнечный нагрев. Характеристика знойности погоды. Зависит от высоты солнца над горизонтом, облачности и скорости ветра. Ночью, в пасмурную погоду, а также при ветре 12 м/с и более поправка равна нулю.
P - Атмосферное давление - приведенное к уровню моря атмосферное давление.
Po - Атмосферное давление - измеренное на уровне метеостанции атмосферное давление.
Tmin - Минимальная температура - минимум температуры воздуха на высоте 2 м над землей.
Tmax - Максимальная температура - максимум температуры воздуха на высоте 2 м над землей.
R - Количество осадков - Количество выпавших осадков за период времени, мм. При наведении курсора мыши на число - период времени, за который выпало указанное количество осадков.
R24 - Количество осадков - Количество выпавших осадков за 24 часа, мм.
S - Снежный покров - Высота снежного покрова, см. При наведении курсора мыши на число - состояние снежного покрова и степень покрытия местности в баллах.